FW0479 Weather Reports


Display with metric or nautical units.
time (UTC)temp
F
wind
direction
speed
MPH
gust
MPH
rain 1hr
in
rain 24hr
in
rain mn
in
humidity
%
barometer
mb
20210614152123 82 261 3.0 7.0 0.00 0.00 0.00 78 1013.6
20210614151123 82 300 5.0 9.0 0.00 0.00 0.00 79 1013.6
20210614150124 81 275 4.0 8.0 0.00 0.00 0.00 79 1013.6
20210614145122 80 294 3.0 6.0 0.00 0.00 0.00 81 1013.6
20210614144122 80 288 4.0 7.0 0.00 0.00 0.00 81 1013.7
20210614143122 79 285 4.0 8.0 0.00 0.00 0.00 81 1013.7
20210614142122 79 274 1.0 8.0 0.00 0.00 0.00 82 1013.8
20210614141122 78 274 2.0 5.0 0.00 0.00 0.00 82 1013.9
20210614140123 78 208 1.0 5.0 0.00 0.00 0.00 83 1013.9
20210614135123 78 236 1.0 4.0 0.00 0.00 0.00 83 1014.1
20210614134123 77 225 0.0 2.0 0.00 0.00 0.00 83 1014.0
20210614133122 77 203 0.0 0.0 0.00 0.00 0.00 84 1014.0
20210614132123 77 270 0.0 4.0 0.00 0.00 0.00 84 1013.9
20210614131122 77 135 0.0 0.0 0.00 0.00 0.00 84 1014.0
20210614130122 76 193 0.0 2.0 0.00 0.00 0.00 85 1014.0
20210614125123 76 135 0.0 0.0 0.00 0.00 0.00 85 1014.0
20210614124123 75 124 0.0 1.0 0.00 0.00 0.00 86 1013.9
20210614123123 74 129 0.0 3.0 0.00 0.00 0.00 87 1013.9
20210614122124 73 113 0.0 0.0 0.00 0.00 0.00 88 1013.6
20210614121123 73 113 0.0 0.0 0.00 0.00 0.00 88 1013.6
20210614120122 72 180 0.0 0.0 0.00 0.00 0.00 88 1013.7
20210614115122 71 158 0.0 0.0 0.00 0.00 0.00 89 1013.5
20210614114123 71 113 0.0 0.0 0.00 0.00 0.00 90 1013.5
20210614113122 70 113 0.0 0.0 0.00 0.00 0.00 90 1013.5
20210614112122 70 113 0.0 0.0 0.00 0.00 0.00 91 1013.4
20210614111123 69 113 0.0 1.0 0.00 0.00 0.00 91 1013.3
20210614110124 69 113 0.0 1.0 0.00 0.00 0.00 91 1013.3
20210614105122 69 113 0.0 0.0 0.00 0.00 0.00 91 1013.3
20210614104123 69 90 0.0 0.0 0.00 0.00 0.00 91 1013.0
20210614103123 68 90 0.0 0.0 0.00 0.00 0.00 91 1013.0
20210614102123 68 113 0.0 0.0 0.00 0.00 0.00 91 1013.1
20210614101123 68 113 0.0 0.0 0.00 0.00 0.00 91 1013.1
20210614100123 68 338 0.0 0.0 0.00 0.00 0.00 90 1013.0
20210614095124 68 203 0.0 0.0 0.00 0.00 0.00 90 1012.8
20210614094124 68 180 0.0 0.0 0.00 0.00 0.00 90 1012.7
20210614093123 68 270 0.0 0.0 0.00 0.00 0.00 90 1012.7
20210614092122 69 90 0.0 0.0 0.00 0.00 0.00 90 1012.7
20210614091122 69 90 0.0 0.0 0.00 0.00 0.00 90 1012.7
20210614090123 69 68 0.0 0.0 0.00 0.00 0.00 90 1012.4
20210614085122 69 270 0.0 0.0 0.00 0.00 0.00 90 1012.3
20210614084122 69 45 0.0 0.0 0.00 0.00 0.00 90 1012.2
20210614083123 69 90 0.0 0.0 0.00 0.00 0.00 90 1012.2
20210614082123 69 270 0.0 3.0 0.00 0.00 0.00 90 1012.3
20210614081122 69 268 0.0 3.0 0.00 0.00 0.00 90 1012.2
20210614080122 69 248 0.0 0.0 0.00 0.00 0.00 89 1012.0
20210614075123 69 225 0.0 1.0 0.00 0.00 0.00 89 1011.9
20210614074122 69 315 0.0 2.0 0.00 0.00 0.00 89 1012.1
20210614073122 69 203 0.0 0.0 0.00 0.00 0.00 89 1012.1
20210614072122 69 203 0.0 0.0 0.00 0.00 0.00 89 1012.4
20210614071123 69 203 0.0 0.0 0.00 0.00 0.00 89 1012.6
20210614070123 70 180 0.0 0.0 0.00 0.00 0.00 89 1012.9
20210614065122 70 68 0.0 1.0 0.00 0.00 0.00 89 1013.0
20210614064122 70 45 0.0 0.0 0.00 0.00 0.00 89 1012.9
20210614063122 70 278 2.0 4.0 0.00 0.00 0.00 89 1012.9
20210614062122 70 292 4.0 6.0 0.00 0.00 0.00 89 1012.7
20210614061122 69 301 2.0 4.0 0.00 0.00 0.00 89 1012.1
20210614060122 69 293 1.0 3.0 0.00 0.00 0.00 89 1012.0
20210614055122 69 262 0.0 2.0 0.00 0.00 0.00 89 1012.4
20210614054122 69 270 0.0 0.0 0.00 0.00 0.00 89 1012.9
20210614053122 70 225 0.0 0.0 0.00 0.00 0.00 89 1012.9
20210614052122 70 180 0.0 0.0 0.00 0.00 0.00 89 1013.9
20210614051122 70 225 0.0 0.0 0.00 0.00 0.00 89 1014.3
20210614050121 70 203 0.0 0.0 0.00 0.00 0.00 89 1014.6
20210614045123 70 45 0.0 0.0 0.00 0.00 0.00 89 1014.7
20210614044123 70 293 0.0 0.0 0.00 0.00 0.00 89 1014.4
20210614043122 70 23 0.0 0.0 0.00 0.00 0.00 89 1014.4
20210614042122 70 135 0.0 0.0 0.00 0.00 0.00 88 1014.3
20210614041123 70 270 0.0 0.0 0.00 0.00 0.00 88 1014.2
20210614040123 70 225 0.0 0.0 0.00 0.00 0.00 87 1013.9
20210614035122 70 203 0.0 0.0 0.00 0.00 0.00 87 1014.2
20210614034122 71 225 0.0 0.0 0.00 0.00 0.00 87 1014.2
20210614033122 71 180 0.0 0.0 0.00 0.00 0.00 87 1014.2
20210614032126 71 135 0.0 0.0 0.00 0.00 0.00 86 1014.4
20210614031125 71 270 0.0 0.0 0.00 0.00 0.00 86 1014.1
20210614030126 72 45 0.0 0.0 0.00 0.00 0.00 86 1014.3
20210614025122 72 225 0.0 0.0 0.00 0.00 0.00 86 1014.3
20210614024122 72 225 0.0 0.0 0.00 0.00 0.00 85 1014.1
20210614023122 72 248 0.0 0.0 0.00 0.00 0.00 85 1014.1
20210614022122 73 203 0.0 0.0 0.00 0.00 0.00 85 1014.3
20210614021122 73 225 0.0 0.0 0.00 0.00 0.00 84 1014.1
20210614020125 73 225 0.0 0.0 0.00 0.00 0.00 84 1013.8
20210614015125 74 248 0.0 0.0 0.00 0.00 0.00 84 1013.7
20210614014126 74 293 0.0 0.0 0.00 0.00 0.00 84 1013.4
20210614013122 75 158 0.0 0.0 0.00 0.00 0.00 83 1013.4
20210614012122 76 113 0.0 0.0 0.00 0.00 0.00 82 1013.2
20210614011122 76 45 0.0 0.0 0.00 0.00 0.00 81 1012.9
20210614010122 77 315 0.0 0.0 0.00 0.00 0.00 81 1012.8
20210614005122 78 113 0.0 0.0 0.00 0.00 0.00 80 1013.2
20210614004123 79 135 0.0 0.0 0.00 0.00 0.00 76 1013.1
20210614003125 80 225 0.0 0.0 0.00 0.00 0.00 76 1013.1
20210614002125 81 360 0.0 0.0 0.00 0.00 0.00 73 1013.0
20210614001123 82 113 0.0 0.0 0.00 0.00 0.00 72 1012.9
20210614000122 84 45 0.0 0.0 0.00 0.00 0.00 71 1012.8
20210613235122 84 90 0.0 0.0 0.00 0.00 0.00 71 1012.7
20210613234121 84 293 0.0 0.0 0.00 0.00 0.00 71 1012.8
20210613233122 84 338 0.0 0.0 0.00 0.00 0.00 72 1012.8
20210613232122 84 113 0.0 0.0 0.00 0.00 0.00 73 1012.4
20210613231125 82 180 0.0 0.0 0.00 0.00 0.00 75 1012.2
20210613230125 82 45 0.0 0.0 0.00 0.00 0.00 72 1012.1
20210613225122 82 90 0.0 0.0 0.00 0.00 0.00 72 1011.7
20210613224123 83 180 0.0 0.0 0.00 0.00 0.00 73 1011.6
20210613223122 84 107 1.0 3.0 0.00 0.00 0.00 70 1011.6
20210613222122 85 112 2.0 3.0 0.00 0.00 0.00 67 1011.5
20210613221122 86 297 2.0 4.0 0.00 0.00 0.00 66 1011.7
20210613220122 86 96 2.0 3.0 0.00 0.00 0.00 67 1011.9
20210613215125 86 105 2.0 3.0 0.00 0.00 0.00 67 1012.0
20210613214125 86 94 2.0 3.0 0.00 0.00 0.00 65 1012.1
20210613213122 87 127 2.0 3.0 0.00 0.00 0.00 64 1012.1
20210613212122 87 90 3.0 3.0 0.00 0.00 0.00 64 1012.3
20210613211123 88 358 2.0 3.0 0.00 0.00 0.00 63 1012.5
20210613210122 87 279 2.0 4.0 0.00 0.00 0.00 66 1012.7
20210613205122 88 265 3.0 6.0 0.00 0.00 0.00 63 1013.1
20210613204122 87 297 3.0 6.0 0.00 0.00 0.00 66 1013.2
20210613203122 86 290 3.0 5.0 0.00 0.00 0.00 68 1013.2
20210613202124 86 334 3.0 4.0 0.00 0.00 0.00 68 1013.4
20210613201124 85 275 3.0 6.0 0.00 0.00 0.00 68 1013.4
20210613200122 84 294 2.0 5.0 0.00 0.00 0.00 69 1013.8
20210613195122 84 77 2.0 4.0 0.00 0.00 0.00 69 1013.9
20210613194123 85 286 3.0 6.0 0.00 0.00 0.00 68 1014.2
20210613193122 82 41 2.0 5.0 0.00 0.00 0.00 73 1014.2
20210613192122 81 296 3.0 5.0 0.00 0.00 0.00 73 1014.3
20210613191122 83 275 4.0 7.0 0.00 0.00 0.00 69 1014.3
20210613190122 80 79 2.0 3.0 0.00 0.00 0.00 74 1014.2
20210613185123 81 348 2.0 6.0 0.00 0.00 0.00 74 1014.4
20210613184122 82 65 2.0 5.0 0.00 0.00 0.00 73 1014.6
20210613183122 81 45 2.0 4.0 0.00 0.00 0.00 72 1014.6
20210613182123 84 327 3.0 7.0 0.00 0.00 0.00 71 1014.6
20210613181122 80 207 2.0 3.0 0.00 0.00 0.00 74 1014.8
20210613180122 79 98 1.0 4.0 0.00 0.00 0.00 76 1014.9
20210613175122 80 314 3.0 6.0 0.00 0.00 0.00 76 1014.8
20210613174122 79 287 3.0 6.0 0.00 0.00 0.00 77 1015.2
20210613173122 78 306 3.0 6.0 0.00 0.00 0.00 77 1015.2
20210613172122 78 54 2.0 3.0 0.00 0.00 0.00 80 1015.3
20210613171122 77 78 2.0 4.0 0.00 0.00 0.00 79 1015.3
20210613170122 78 84 2.0 4.0 0.00 0.00 0.00 77 1015.3
20210613165122 77 45 2.0 4.0 0.00 0.00 0.00 80 1015.3
20210613164122 78 322 3.0 6.0 0.00 0.00 0.00 79 1015.4
20210613163123 78 69 2.0 4.0 0.00 0.00 0.00 76 1015.4
20210613162122 78 90 3.0 4.0 0.00 0.00 0.00 77 1015.5
20210613161122 77 94 3.0 4.0 0.00 0.00 0.00 77 1015.5
20210613160122 77 78 3.0 5.0 0.00 0.00 0.00 78 1015.5
20210613155123 76 86 3.0 4.0 0.00 0.00 0.00 78 1015.7
20210613154122 76 79 2.0 3.0 0.00 0.00 0.00 80 1015.7